QPF
0.00 0.00 0.00 0.00 0.00 0.00 0.00 0.01 0.01 0.02 0.01 0.01 0.01 0.01 0.01 0.00 0.00 0.00 0.00 0.00 0.00 0.00 0.00 0.00 0.00 0.00 0.00 0.00 0.01 0.01 0.02 0.03 0.05 0.05 0.05 0.05 0.06 0.06 0.06 0.05 0.02 0.02 0.03 0.03
0.00 0.00 0.00 0.00 0.00 0.00 0.00 0.00 0.00 0.01 0.01 0.01 0.01 0.01 0.01 0.00 0.00 0.00 0.00 0.00 0.00 0.00 0.00 0.00 0.00 0.00 0.00 0.00 0.00 0.00 0.01 0.02 0.03 0.04 0.05 0.06 0.06 0.05 0.06 0.05 0.06 0.04 0.04 0.04
0.00 0.00 0.00 0.00 0.00 0.00 0.00 0.00 0.00 0.00 0.01 0.01 0.01 0.01 0.01 0.00 0.01 0.00 0.00 0.00 0.00 0.00 0.00 0.00 0.00 0.00 0.00 0.00 0.00 0.00 0.01 0.02 0.03 0.03 0.03 0.05 0.06 0.07 0.07 0.06 0.08 0.05 0.03 0.03
0.00 0.00 0.00 0.00 0.00 0.00 0.00 0.00 0.00 0.00 0.00 0.01 0.01 0.02 0.01 0.01 0.01 0.00 0.00 0.00 0.00 0.00 0.00 0.00 0.00 0.00 0.00 0.00 0.00 0.00 0.01 0.01 0.01 0.02 0.03 0.05 0.06 0.07 0.08 0.07 0.09 0.08 0.05 0.03
0.00 0.00 0.00 0.00 0.00 0.00 0.00 0.00 0.00 0.00 0.00 0.00 0.00 0.00 0.01 0.01 0.01 0.01 0.01 0.01 0.01 0.00 0.00 0.00 0.00 0.00 0.00 0.00 0.00 0.00 0.01 0.02 0.02 0.02 0.03 0.04 0.05 0.07 0.07 0.06 0.11 0.08 0.06 0.04
0.00 0.00 0.00 0.00 0.00 0.00 0.00 0.00 0.00 0.00 0.00 0.01 0.02 0.01 0.00 0.00 0.01 0.03 0.06 0.02 0.01 0.00 0.00 0.00 0.00 0.00 0.00 0.00 0.00 0.01 0.02 0.03 0.03 0.02 0.02 0.03 0.04 0.06 0.06 0.07 0.07 0.05 0.06 0.04
0.00 0.00 0.00 0.00 0.00 0.00 0.00 0.00 0.00 0.00 0.01 0.02 0.03 0.01 0.00 0.00 0.01 0.02 0.03 0.02 0.01 0.01 0.01 0.00 0.00 0.00 0.00 0.00 0.00 0.00 0.01 0.02 0.02 0.03 0.02 0.02 0.03 0.05 0.05 0.05 0.05 0.05 0.04 0.04
0.00 0.00 0.00 0.00 0.00 0.00 0.00 0.00 0.00 0.00 0.01 0.02 0.01 0.01 0.01 0.00 0.00 0.00 0.01 0.01 0.01 0.01 0.00 0.00 0.00 0.00 0.00 0.00 0.00 0.00 0.01 0.02 0.02 0.01 0.02 0.02 0.03 0.02 0.02 0.04 0.04 0.05 0.03 0.03
0.00 0.00 0.00 0.00 0.00 0.00 0.00 0.00 0.00 0.00 0.00 0.01 0.01 0.00 0.01 0.00 0.00 0.00 0.00 0.00 0.01 0.00 0.00 0.00 0.00 0.01 0.00 0.00 0.00 0.00 0.01 0.02 0.02 0.02 0.02 0.03 0.03 0.03 0.03 0.04 0.03 0.02 0.02 0.02
0.00 0.00 0.00 0.00 0.00 0.00 0.00 0.00 0.00 0.00 0.00 0.00 0.00 0.01 0.01 0.02 0.01 0.01 0.00 0.00 0.00 0.00 0.00 0.00 0.00 0.01 0.02 0.01 0.00 0.00 0.00 0.01 0.02 0.04 0.05 0.04 0.05 0.04 0.05 0.05 0.03 0.02 0.02 0.02
0.00 0.00 0.00 0.00 0.00 0.00 0.00 0.00 0.00 0.00 0.00 0.00 0.00 0.00 0.02 0.03 0.03 0.04 0.01 0.00 0.00 0.00 0.00 0.00 0.00 0.00 0.01 0.02 0.01 0.00 0.00 0.01 0.03 0.06 0.07 0.07 0.07 0.07 0.06 0.05 0.04 0.04 0.03 0.04
0.00 0.00 0.00 0.00 0.00 0.00 0.00 0.00 0.00 0.00 0.00 0.00 0.00 0.00 0.00 0.01 0.04 0.07 0.02 0.00 0.00 0.00 0.00 0.00 0.01 0.01 0.00 0.00 0.00 0.00 0.01 0.01 0.01 0.02 0.03 0.04 0.04 0.04 0.03 0.03 0.03 0.04 0.03 0.03
0.00 0.00 0.00 0.01 0.00 0.00 0.00 0.00 0.00 0.00 0.00 0.00 0.00 0.00 0.00 0.01 0.02 0.02 0.01 0.00 0.00 0.00 0.00 0.01 0.02 0.01 0.01 0.00 0.00 0.00 0.01 0.01 0.01 0.02 0.02 0.03 0.03 0.03 0.03 0.03 0.03 0.03 0.04 0.04
0.00 0.00 0.00 0.00 0.01 0.00 0.00 0.00 0.00 0.00 0.00 0.00 0.00 0.00 0.01 0.03 0.03 0.01 0.01 0.00 0.00 0.00 0.00 0.02 0.02 0.02 0.02 0.01 0.00 0.00 0.00 0.00 0.01 0.02 0.03 0.04 0.03 0.03 0.03 0.03 0.03 0.03 0.04 0.04
0.00 0.00 0.00 0.00 0.00 0.01 0.01 0.00 0.00 0.00 0.00 0.00 0.00 0.01 0.02 0.03 0.02 0.01 0.00 0.00 0.01 0.01 0.01 0.02 0.03 0.03 0.04 0.03 0.02 0.01 0.01 0.01 0.01 0.02 0.03 0.03 0.03 0.03 0.03 0.03 0.03 0.04 0.04 0.04
0.00 0.00 0.00 0.00 0.00 0.00 0.01 0.00 0.00 0.00 0.00 0.00 0.00 0.00 0.00 0.00 0.01 0.01 0.00 0.00 0.02 0.03 0.02 0.02 0.02 0.01 0.02 0.02 0.01 0.01 0.01 0.02 0.03 0.04 0.03 0.03 0.02 0.03 0.03 0.03 0.03 0.04 0.05 0.05
0.00 0.00 0.00 0.00 0.00 0.00 0.01 0.01 0.00 0.00 0.00 0.00 0.00 0.01 0.00 0.00 0.02 0.02 0.00 0.00 0.01 0.03 0.02 0.02 0.02 0.02 0.01 0.02 0.02 0.02 0.02 0.03 0.04 0.04 0.04 0.03 0.02 0.02 0.02 0.02 0.02 0.04 0.05 0.06
0.00 0.00 0.00 0.00 0.00 0.00 0.00 0.01 0.00 0.00 0.00 0.00 0.00 0.00 0.00 0.00 0.01 0.02 0.01 0.01 0.01 0.01 0.02 0.02 0.02 0.02 0.01 0.01 0.02 0.02 0.03 0.03 0.04 0.04 0.04 0.04 0.02 0.02 0.02 0.02 0.03 0.05 0.06 0.06
0.00 0.00 0.00 0.00 0.01 0.01 0.01 0.01 0.01 0.01 0.01 0.02 0.01 0.00 0.00 0.00 0.00 0.01 0.04 0.02 0.01 0.04 0.06 0.06 0.04 0.03 0.01 0.01 0.02 0.02 0.03 0.03 0.04 0.03 0.04 0.04 0.03 0.03 0.04 0.04 0.04 0.05 0.06 0.07
0.00 0.00 0.00 0.00 0.00 0.01 0.02 0.01 0.01 0.01 0.02 0.02 0.02 0.01 0.00 0.00 0.01 0.01 0.02 0.03 0.01 0.02 0.06 0.07 0.05 0.03 0.02 0.01 0.02 0.02 0.03 0.04 0.05 0.04 0.05 0.06 0.06 0.05 0.05 0.04 0.05 0.06 0.07 0.09
0.00 0.00 0.00 0.00 0.00 0.01 0.01 0.02 0.01 0.03 0.07 0.05 0.04 0.03 0.01 0.01 0.01 0.01 0.01 0.03 0.03 0.02 0.02 0.04 0.04 0.02 0.02 0.01 0.01 0.02 0.02 0.04 0.07 0.07 0.07 0.09 0.10 0.08 0.07 0.06 0.06 0.06 0.07 0.10
0.00 0.00 0.01 0.01 0.02 0.02 0.01 0.01 0.02 0.03 0.04 0.10 0.10 0.07 0.03 0.01 0.01 0.01 0.02 0.07 0.08 0.03 0.01 0.01 0.02 0.01 0.01 0.01 0.01 0.02 0.03 0.04 0.05 0.06 0.07 0.08 0.11 0.08 0.07 0.09 0.09 0.08 0.07 0.08
0.01 0.01 0.01 0.01 0.02 0.02 0.02 0.02 0.02 0.02 0.04 0.08 0.11 0.08 0.05 0.03 0.01 0.01 0.02 0.05 0.07 0.04 0.02 0.02 0.02 0.01 0.01 0.01 0.02 0.03 0.03 0.04 0.04 0.04 0.05 0.08 0.09 0.09 0.10 0.11 0.10 0.09 0.07 0.06
0.02 0.01 0.01 0.01 0.01 0.01 0.01 0.02 0.03 0.05 0.06 0.08 0.13 0.10 0.03 0.01 0.01 0.01 0.01 0.01 0.02 0.02 0.01 0.01 0.01 0.01 0.02 0.02 0.01 0.02 0.04 0.05 0.05 0.04 0.05 0.07 0.08 0.10 0.11 0.11 0.08 0.06 0.06 0.08
0.01 0.01 0.01 0.01 0.01 0.01 0.01 0.01 0.02 0.06 0.07 0.09 0.08 0.05 0.01 0.01 0.02 0.02 0.02 0.02 0.01 0.00 0.00 0.00 0.01 0.01 0.03 0.05 0.04 0.02 0.04 0.06 0.06 0.06 0.06 0.06 0.07 0.08 0.10 0.10 0.09 0.07 0.07 0.08
0.02 0.02 0.04 0.03 0.02 0.01 0.01 0.01 0.02 0.02 0.01 0.01 0.01 0.02 0.01 0.01 0.02 0.02 0.01 0.01 0.01 0.01 0.00 0.01 0.01 0.01 0.02 0.02 0.03 0.06 0.06 0.06 0.07 0.07 0.06 0.06 0.07 0.08 0.09 0.10 0.11 0.09 0.07 0.07
MSLP
1004.81 1005.43 1005.85 1006.06 1006.09 1006.00 1005.85 1005.69 1005.54 1005.42 1005.32 1005.23 1005.14 1005.04 1004.95 1004.90 1004.91 1005.01 1005.21 1005.52 1005.90 1006.33 1006.77 1007.18 1007.55 1007.89 1008.19 1008.48 1008.79 1009.13 1009.52 1009.93 1010.35 1010.74 1011.09 1011.36 1011.56 1011.69 1011.77 1011.85 1011.94 1012.08 1012.29 1012.58
1005.46 1005.89 1006.10 1006.13 1006.02 1005.86 1005.69 1005.56 1005.49 1005.44 1005.40 1005.32 1005.19 1005.00 1004.78 1004.58 1004.45 1004.44 1004.59 1004.90 1005.34 1005.87 1006.44 1006.99 1007.47 1007.88 1008.21 1008.50 1008.78 1009.08 1009.43 1009.83 1010.25 1010.68 1011.09 1011.42 1011.68 1011.86 1011.96 1012.03 1012.09 1012.19 1012.35 1012.59
1005.81 1006.03 1006.05 1005.92 1005.72 1005.53 1005.42 1005.40 1005.45 1005.54 1005.59 1005.55 1005.38 1005.09 1004.72 1004.34 1004.03 1003.87 1003.92 1004.20 1004.68 1005.31 1006.01 1006.70 1007.32 1007.83 1008.23 1008.55 1008.82 1009.09 1009.40 1009.77 1010.19 1010.64 1011.08 1011.46 1011.77 1011.98 1012.10 1012.16 1012.20 1012.26 1012.37 1012.56
1005.83 1005.85 1005.71 1005.48 1005.26 1005.13 1005.14 1005.30 1005.55 1005.81 1005.99 1006.01 1005.82 1005.42 1004.88 1004.28 1003.75 1003.39 1003.29 1003.48 1003.95 1004.63 1005.44 1006.26 1007.02 1007.66 1008.15 1008.52 1008.80 1009.06 1009.35 1009.70 1010.11 1010.56 1011.01 1011.43 1011.77 1012.01 1012.14 1012.21 1012.23 1012.26 1012.34 1012.49
1005.54 1005.42 1005.18 1004.93 1004.75 1004.75 1004.95 1005.34 1005.82 1006.29 1006.63 1006.72 1006.51 1006.00 1005.27 1004.43 1003.63 1003.03 1002.72 1002.77 1003.16 1003.85 1004.72 1005.65 1006.53 1007.29 1007.88 1008.32 1008.65 1008.92 1009.21 1009.54 1009.94 1010.39 1010.85 1011.29 1011.65 1011.91 1012.07 1012.14 1012.17 1012.18 1012.24 1012.38
1005.06 1004.85 1004.57 1004.35 1004.28 1004.45 1004.87 1005.51 1006.24 1006.93 1007.42 1007.58 1007.36 1006.74 1005.82 1004.74 1003.67 1002.79 1002.24 1002.09 1002.36 1002.98 1003.86 1004.85 1005.82 1006.68 1007.38 1007.91 1008.30 1008.61 1008.91 1009.25 1009.65 1010.10 1010.57 1011.03 1011.41 1011.70 1011.88 1011.96 1012.00 1012.02 1012.07 1012.20
1004.53 1004.27 1004.00 1003.84 1003.90 1004.25 1004.89 1005.75 1006.70 1007.58 1008.20 1008.43 1008.20 1007.50 1006.42 1005.11 1003.79 1002.65 1001.84 1001.48 1001.58 1002.09 1002.92 1003.91 1004.94 1005.88 1006.66 1007.28 1007.75 1008.12 1008.46 1008.83 1009.24 1009.71 1010.19 1010.66 1011.07 1011.38 1011.58 1011.68 1011.73 1011.76 1011.82 1011.94
1004.09 1003.81 1003.57 1003.49 1003.66 1004.14 1004.93 1005.95 1007.06 1008.06 1008.78 1009.06 1008.83 1008.08 1006.89 1005.43 1003.92 1002.56 1001.54 1000.97 1000.88 1001.26 1001.99 1002.94 1003.97 1004.95 1005.80 1006.50 1007.04 1007.49 1007.89 1008.30 1008.75 1009.24 1009.74 1010.23 1010.65 1010.98 1011.20 1011.33 1011.39 1011.42 1011.49 1011.61
1003.85 1003.58 1003.36 1003.32 1003.54 1004.08 1004.92 1006.00 1007.16 1008.22 1008.98 1009.30 1009.08 1008.33 1007.12 1005.60 1004.00 1002.51 1001.34 1000.61 1000.36 1000.59 1001.20 1002.07 1003.05 1004.03 1004.91 1005.66 1006.28 1006.80 1007.26 1007.73 1008.22 1008.74 1009.27 1009.77 1010.21 1010.55 1010.79 1010.93 1010.99 1011.04 1011.10 1011.22
1003.89 1003.62 1003.40 1003.34 1003.53 1004.03 1004.82 1005.84 1006.94 1007.96 1008.71 1009.05 1008.88 1008.19 1007.04 1005.58 1004.01 1002.52 1001.30 1000.48 1000.11 1000.20 1000.68 1001.44 1002.33 1003.26 1004.13 1004.89 1005.55 1006.12 1006.65 1007.17 1007.70 1008.25 1008.80 1009.32 1009.77 1010.13 1010.37 1010.52 1010.59 1010.63 1010.69 1010.79
1004.21 1003.92 1003.67 1003.54 1003.63 1003.98 1004.60 1005.45 1006.40 1007.30 1008.00 1008.34 1008.25 1007.69 1006.71 1005.43 1004.01 1002.64 1001.48 1000.66 1000.23 1000.22 1000.56 1001.17 1001.94 1002.76 1003.56 1004.30 1004.96 1005.55 1006.11 1006.66 1007.22 1007.79 1008.36 1008.89 1009.35 1009.71 1009.96 1010.11 1010.19 1010.24 1010.29 1010.37
1004.72 1004.43 1004.12 1003.88 1003.80 1003.94 1004.33 1004.93 1005.65 1006.39 1007.00 1007.36 1007.37 1007.00 1006.27 1005.26 1004.11 1002.96 1001.96 1001.20 1000.77 1000.67 1000.88 1001.33 1001.94 1002.61 1003.29 1003.94 1004.55 1005.11 1005.67 1006.22 1006.79 1007.36 1007.93 1008.46 1008.93 1009.29 1009.56 1009.73 1009.82 1009.87 1009.92 1010.00
1005.36 1005.05 1004.68 1004.33 1004.07 1003.97 1004.09 1004.41 1004.89 1005.45 1005.96 1006.34 1006.47 1006.33 1005.90 1005.23 1004.41 1003.55 1002.76 1002.13 1001.73 1001.57 1001.65 1001.93 1002.33 1002.81 1003.33 1003.83 1004.33 1004.82 1005.32 1005.84 1006.38 1006.94 1007.49 1008.01 1008.47 1008.86 1009.14 1009.33 1009.45 1009.53 1009.60 1009.69
1006.00 1005.70 1005.30 1004.85 1004.43 1004.13 1004.00 1004.06 1004.32 1004.70 1005.14 1005.53 1005.80 1005.89 1005.77 1005.45 1004.99 1004.44 1003.89 1003.41 1003.05 1002.84 1002.79 1002.88 1003.07 1003.33 1003.63 1003.96 1004.30 1004.67 1005.07 1005.50 1005.98 1006.49 1007.01 1007.51 1007.97 1008.37 1008.68 1008.92 1009.09 1009.21 1009.32 1009.44
1006.59 1006.33 1005.92 1005.42 1004.91 1004.46 1004.15 1004.03 1004.10 1004.35 1004.73 1005.15 1005.54 1005.85 1006.01 1006.01 1005.86 1005.60 1005.27 1004.93 1004.61 1004.36 1004.18 1004.08 1004.05 1004.07 1004.15 1004.26 1004.42 1004.63 1004.89 1005.21 1005.60 1006.03 1006.49 1006.96 1007.41 1007.82 1008.17 1008.47 1008.70 1008.89 1009.06 1009.22
1007.09 1006.88 1006.52 1006.04 1005.51 1005.01 1004.61 1004.37 1004.34 1004.51 1004.84 1005.29 1005.78 1006.25 1006.63 1006.88 1006.98 1006.95 1006.79 1006.55 1006.26 1005.95 1005.65 1005.37 1005.14 1004.94 1004.80 1004.70 1004.67 1004.70 1004.80 1004.99 1005.25 1005.58 1005.96 1006.38 1006.81 1007.23 1007.62 1007.97 1008.28 1008.55 1008.78 1008.99
1007.49 1007.37 1007.10 1006.70 1006.23 1005.76 1005.37 1005.11 1005.04 1005.17 1005.48 1005.94 1006.49 1007.04 1007.56 1007.96 1008.22 1008.32 1008.27 1008.09 1007.80 1007.45 1007.04 1006.63 1006.23 1005.85 1005.51 1005.23 1005.02 1004.88 1004.82 1004.86 1004.98 1005.20 1005.48 1005.83 1006.23 1006.64 1007.06 1007.46 1007.83 1008.17 1008.47 1008.74
1007.83 1007.80 1007.65 1007.38 1007.04 1006.68 1006.37 1006.16 1006.11 1006.24 1006.54 1006.99 1007.53 1008.10 1008.64 1009.09 1009.41 1009.57 1009.56 1009.39 1009.09 1008.69 1008.22 1007.72 1007.20 1006.70 1006.24 1005.82 1005.46 1005.17 1004.97 1004.86 1004.85 1004.93 1005.11 1005.38 1005.71 1006.10 1006.52 1006.95 1007.37 1007.77 1008.12 1008.43
1008.17 1008.22 1008.19 1008.07 1007.89 1007.68 1007.50 1007.39 1007.39 1007.53 1007.82 1008.22 1008.70 1009.22 1009.71 1010.11 1010.39 1010.52 1010.50 1010.32 1010.01 1009.59 1009.09 1008.55 1008.00 1007.44 1006.91 1006.42 1005.97 1005.58 1005.26 1005.02 1004.88 1004.83 1004.89 1005.06 1005.32 1005.66 1006.06 1006.49 1006.93 1007.35 1007.74 1008.07
1008.54 1008.65 1008.72 1008.74 1008.72 1008.67 1008.63 1008.63 1008.70 1008.85 1009.10 1009.43 1009.82 1010.21 1010.58 1010.87 1011.05 1011.11 1011.03 1010.83 1010.51 1010.10 1009.62 1009.10 1008.57 1008.03 1007.50 1006.99 1006.50 1006.05 1005.64 1005.31 1005.05 1004.88 1004.82 1004.88 1005.05 1005.32 1005.68 1006.09 1006.52 1006.95 1007.35 1007.70
1008.95 1009.09 1009.24 1009.37 1009.48 1009.58 1009.66 1009.75 1009.87 1010.03 1010.23 1010.46 1010.71 1010.95 1011.16 1011.30 1011.35 1011.31 1011.16 1010.93 1010.61 1010.24 1009.82 1009.37 1008.91 1008.44 1007.96 1007.47 1006.99 1006.52 1006.06 1005.65 1005.30 1005.03 1004.87 1004.82 1004.90 1005.10 1005.40 1005.76 1006.17 1006.59 1006.98 1007.33
1009.41 1009.54 1009.72 1009.93 1010.13 1010.32 1010.50 1010.65 1010.80 1010.94 1011.07 1011.20 1011.30 1011.38 1011.42 1011.39 1011.31 1011.16 1010.95 1010.69 1010.40 1010.07 1009.73 1009.38 1009.02 1008.64 1008.25 1007.82 1007.37 1006.90 1006.42 1005.96 1005.54 1005.19 1004.94 1004.81 1004.81 1004.94 1005.18 1005.50 1005.88 1006.28 1006.66 1007.01
1009.86 1009.97 1010.16 1010.39 1010.64 1010.88 1011.10 1011.29 1011.43 1011.54 1011.60 1011.62 1011.59 1011.51 1011.39 1011.22 1011.01 1010.77 1010.51 1010.24 1009.97 1009.70 1009.45 1009.20 1008.94 1008.66 1008.35 1007.99 1007.58 1007.12 1006.64 1006.15 1005.68 1005.28 1004.97 1004.78 1004.72 1004.79 1004.99 1005.28 1005.64 1006.02 1006.40 1006.75
1010.29 1010.36 1010.52 1010.74 1010.99 1011.25 1011.48 1011.66 1011.79 1011.85 1011.84 1011.76 1011.61 1011.41 1011.16 1010.88 1010.57 1010.27 1009.97 1009.69 1009.45 1009.23 1009.05 1008.88 1008.70 1008.50 1008.25 1007.94 1007.57 1007.13 1006.64 1006.14 1005.65 1005.22 1004.88 1004.66 1004.57 1004.62 1004.80 1005.08 1005.43 1005.82 1006.21 1006.58
1010.63 1010.68 1010.80 1010.99 1011.22 1011.45 1011.66 1011.82 1011.91 1011.92 1011.84 1011.69 1011.46 1011.17 1010.83 1010.47 1010.10 1009.75 1009.43 1009.16 1008.93 1008.75 1008.61 1008.49 1008.36 1008.20 1007.99 1007.70 1007.34 1006.91 1006.43 1005.92 1005.43 1005.00 1004.66 1004.43 1004.35 1004.41 1004.60 1004.90 1005.27 1005.68 1006.09 1006.49
1010.90 1010.91 1011.00 1011.15 1011.33 1011.52 1011.69 1011.81 1011.85 1011.82 1011.70 1011.49 1011.21 1010.87 1010.49 1010.08 1009.68 1009.31 1008.98 1008.71 1008.49 1008.33 1008.20 1008.09 1007.97 1007.82 1007.61 1007.32 1006.96 1006.53 1006.04 1005.54 1005.06 1004.65 1004.33 1004.13 1004.08 1004.18 1004.40 1004.74 1005.15 1005.59 1006.04 1006.48
Thickness
5872 5859 5851 5862 5874 5873 5871 5856 5846 5857 5874 5870 5865 5865 5868 5873 5871 5865 5859 5856 5851 5847 5849 5845 5838 5836 5829 5821 5814 5809 5804 5800 5797 5792 5787 5784 5781 5781 5781 5780 5778 5775 5773 5771
5854 5849 5868 5880 5884 5878 5872 5858 5853 5862 5877 5872 5865 5864 5871 5875 5873 5874 5866 5861 5856 5851 5849 5845 5841 5838 5831 5824 5818 5812 5807 5803 5800 5796 5792 5789 5787 5784 5783 5782 5779 5777 5775 5773
5844 5861 5880 5875 5871 5867 5868 5863 5861 5858 5871 5877 5864 5850 5859 5870 5875 5875 5876 5871 5866 5859 5852 5847 5843 5840 5835 5827 5822 5818 5812 5808 5804 5801 5797 5793 5789 5785 5783 5781 5779 5778 5776 5775
5854 5872 5871 5865 5864 5867 5857 5879 5876 5866 5856 5851 5854 5824 5842 5856 5860 5866 5871 5870 5863 5864 5860 5853 5847 5842 5838 5834 5829 5823 5816 5811 5807 5804 5798 5793 5787 5783 5783 5783 5781 5780 5779 5777
5848 5864 5861 5855 5864 5872 5867 5882 5876 5869 5858 5848 5849 5832 5837 5857 5847 5855 5867 5870 5868 5867 5865 5859 5854 5848 5845 5840 5834 5827 5820 5814 5810 5806 5802 5796 5792 5790 5789 5787 5783 5781 5779 5778
5855 5874 5873 5868 5878 5879 5876 5870 5866 5864 5853 5823 5836 5831 5827 5851 5852 5857 5865 5868 5869 5870 5867 5864 5861 5854 5848 5844 5837 5830 5821 5815 5812 5808 5804 5799 5795 5793 5790 5787 5783 5781 5780 5779
5835 5853 5870 5875 5860 5867 5864 5842 5822 5815 5813 5814 5838 5832 5839 5864 5874 5870 5867 5870 5873 5872 5866 5861 5859 5853 5848 5843 5839 5832 5823 5816 5813 5809 5806 5802 5799 5795 5791 5788 5786 5783 5782 5780
5818 5825 5855 5864 5854 5847 5852 5845 5816 5798 5799 5812 5829 5823 5847 5876 5885 5885 5884 5879 5876 5873 5871 5865 5862 5857 5850 5845 5841 5834 5826 5819 5815 5811 5807 5805 5801 5797 5794 5791 5789 5786 5785 5784
5822 5826 5862 5868 5869 5858 5841 5843 5856 5835 5823 5811 5815 5832 5849 5867 5872 5876 5878 5877 5873 5871 5871 5868 5863 5857 5851 5847 5843 5837 5829 5822 5818 5814 5809 5805 5802 5799 5796 5794 5791 5789 5787 5786
5831 5818 5845 5864 5864 5860 5856 5852 5843 5827 5805 5799 5810 5816 5822 5834 5845 5859 5866 5868 5869 5870 5871 5868 5863 5859 5853 5848 5844 5839 5832 5825 5820 5816 5811 5807 5803 5800 5798 5795 5792 5790 5789 5786
5833 5814 5825 5842 5836 5833 5840 5836 5833 5830 5827 5806 5798 5807 5846 5844 5850 5851 5860 5865 5865 5866 5867 5864 5861 5857 5852 5847 5841 5837 5832 5826 5821 5817 5812 5809 5804 5801 5798 5794 5793 5791 5788 5785
5825 5815 5806 5824 5849 5855 5844 5839 5833 5811 5808 5817 5808 5812 5856 5854 5854 5854 5854 5860 5863 5864 5864 5861 5855 5853 5849 5844 5839 5834 5830 5825 5821 5818 5813 5809 5805 5802 5797 5794 5793 5791 5787 5785
5808 5798 5783 5795 5817 5834 5833 5837 5839 5834 5822 5813 5805 5808 5850 5849 5846 5845 5845 5850 5853 5854 5854 5852 5846 5842 5840 5838 5835 5831 5827 5824 5820 5817 5812 5807 5804 5800 5797 5794 5792 5790 5786 5783
5803 5789 5781 5778 5796 5813 5813 5820 5830 5824 5812 5809 5811 5814 5826 5831 5832 5834 5837 5840 5844 5843 5841 5838 5834 5831 5831 5831 5829 5827 5825 5822 5818 5814 5810 5805 5802 5800 5797 5794 5791 5788 5785 5781
5795 5778 5784 5793 5807 5812 5812 5815 5819 5815 5813 5808 5812 5815 5817 5821 5823 5825 5829 5830 5829 5828 5826 5825 5823 5821 5821 5821 5822 5821 5819 5817 5815 5810 5806 5803 5801 5798 5795 5791 5788 5785 5783 5780
5784 5771 5774 5778 5796 5803 5803 5811 5816 5815 5816 5815 5811 5807 5820 5822 5817 5816 5818 5818 5814 5813 5813 5814 5815 5816 5814 5813 5813 5813 5811 5810 5809 5804 5801 5800 5797 5793 5790 5787 5785 5781 5778 5776
5768 5760 5755 5758 5781 5786 5780 5802 5808 5810 5815 5811 5799 5801 5809 5803 5800 5799 5803 5804 5801 5803 5804 5804 5804 5805 5805 5805 5804 5804 5804 5804 5801 5798 5796 5794 5791 5788 5786 5785 5781 5777 5774 5771
5757 5750 5749 5751 5757 5742 5782 5811 5810 5802 5804 5808 5804 5801 5798 5795 5795 5797 5797 5794 5793 5795 5794 5793 5796 5796 5797 5797 5798 5797 5797 5795 5792 5790 5787 5786 5784 5782 5781 5778 5776 5773 5771 5767
5764 5748 5742 5742 5740 5750 5776 5788 5789 5781 5781 5794 5791 5789 5789 5790 5785 5781 5786 5785 5784 5784 5783 5784 5787 5788 5788 5787 5789 5788 5785 5783 5781 5780 5778 5778 5777 5775 5772 5770 5769 5768 5765 5762
5758 5750 5736 5735 5728 5728 5752 5773 5783 5774 5755 5771 5774 5772 5774 5773 5763 5761 5773 5774 5774 5774 5774 5773 5774 5776 5775 5776 5778 5776 5774 5771 5769 5770 5770 5770 5770 5767 5764 5763 5762 5761 5758 5755
5730 5729 5726 5726 5725 5733 5752 5765 5765 5735 5729 5751 5757 5757 5760 5758 5757 5760 5764 5763 5763 5761 5762 5763 5763 5762 5764 5766 5767 5763 5762 5760 5762 5763 5762 5762 5759 5759 5758 5756 5754 5752 5750 5747
5721 5717 5717 5720 5714 5715 5741 5745 5732 5726 5736 5739 5742 5744 5746 5748 5750 5751 5751 5750 5749 5748 5750 5751 5750 5750 5754 5755 5754 5751 5749 5752 5754 5753 5752 5751 5750 5751 5751 5747 5745 5744 5741 5738
5715 5714 5713 5710 5710 5722 5733 5730 5730 5733 5729 5730 5731 5735 5735 5734 5734 5736 5736 5736 5736 5737 5738 5740 5740 5739 5741 5743 5742 5739 5741 5743 5743 5743 5741 5741 5741 5740 5740 5737 5735 5733 5731 5729
5705 5713 5709 5705 5710 5718 5722 5723 5722 5722 5720 5722 5724 5726 5725 5722 5723 5723 5723 5723 5723 5724 5725 5727 5727 5726 5727 5729 5731 5731 5732 5733 5732 5731 5731 5731 5730 5730 5728 5726 5726 5724 5721 5719
5689 5696 5696 5695 5698 5702 5707 5710 5710 5711 5711 5711 5712 5715 5714 5712 5711 5710 5710 5709 5710 5712 5714 5715 5714 5714 5715 5715 5717 5720 5722 5721 5720 5719 5720 5719 5719 5718 5716 5714 5711 5711 5708 5708
5682 5679 5677 5676 5685 5686 5689 5699 5702 5700 5699 5700 5700 5699 5701 5701 5699 5699 5698 5699 5699 5701 5702 5703 5703 5704 5705 5706 5706 5708 5710 5710 5708 5707 5708 5708 5709 5708 5707 5703 5699 5696 5695 5694